contact:dominique.lefevre@mio.osupytheas.fr, maurice.libes@osupytheas.fr, didier.mallarino@osupytheas.fr
Project:EMSO http://www.emso-fr.org/EMSO-France
Depth: 2436.0 m
Title:EMSO Ligure Ouest : Data MII capteur MICROCAT
DateTime_Computer,Latitude,Longitude,Temperature,Conductivity,Pressure,DateTime_Instrument
DateTime_Computer,Latitude,Longitude,degC,S m-1,dbar,DateTime_Instrument
2017-11-11T00:02:26Z,42.805,6.029,13.2948,4.59985,2472.047,2017-11-11T02:03:53Z
2017-11-11T00:05:29Z,42.805,6.029,13.2951,4.59981,2472.01,2017-11-11T02:06:56Z
2017-11-11T00:08:32Z,42.805,6.029,13.2942,4.59974,2472.047,2017-11-11T02:09:59Z
2017-11-11T00:11:35Z,42.805,6.029,13.2943,4.59971,2472.01,2017-11-11T02:13:02Z
2017-11-11T00:14:38Z,42.805,6.029,13.2947,4.59998,2472.024,2017-11-11T02:16:05Z
2017-11-11T00:17:41Z,42.805,6.029,13.2950,4.59963,2472.047,2017-11-11T02:19:08Z
2017-11-11T00:20:43Z,42.805,6.029,13.2950,4.59977,2472.024,2017-11-11T02:22:10Z
2017-11-11T00:23:46Z,42.805,6.029,13.2951,4.59990,2472.024,2017-11-11T02:25:13Z
2017-11-11T00:26:49Z,42.805,6.029,13.2945,4.59978,2472.032,2017-11-11T02:28:16Z
2017-11-11T00:29:52Z,42.805,6.029,13.2951,4.59990,2472.01,2017-11-11T02:31:19Z
2017-11-11T00:32:55Z,42.805,6.029,13.2943,4.59993,2472.01,2017-11-11T02:34:22Z
2017-11-11T00:35:58Z,42.805,6.029,13.2951,4.59967,2472.024,2017-11-11T02:37:25Z
2017-11-11T00:39:01Z,42.805,6.029,13.2946,4.59967,2472.002,2017-11-11T02:40:28Z
2017-11-11T00:42:04Z,42.805,6.029,13.2950,4.59984,2472.024,2017-11-11T02:43:31Z
2017-11-11T00:45:07Z,42.805,6.029,13.2945,4.59984,2472.01,2017-11-11T02:46:34Z
2017-11-11T00:48:10Z,42.805,6.029,13.2944,4.59967,2472.047,2017-11-11T02:49:37Z
2017-11-11T00:51:12Z,42.805,6.029,13.2943,4.59958,2472.024,2017-11-11T02:52:39Z
2017-11-11T00:54:15Z,42.805,6.029,13.2945,4.59984,2472.01,2017-11-11T02:55:42Z
2017-11-11T00:57:18Z,42.805,6.029,13.2948,4.59993,2472.01,2017-11-11T02:58:45Z
2017-11-11T01:00:21Z,42.805,6.029,13.2948,4.59985,2472.024,2017-11-11T03:01:48Z
2017-11-11T01:03:24Z,42.805,6.029,13.2948,4.59987,2472.002,2017-11-11T03:04:51Z
2017-11-11T01:06:27Z,42.805,6.029,13.2945,4.59982,2472.01,2017-11-11T03:07:54Z
2017-11-11T01:09:30Z,42.805,6.029,13.2946,4.59968,2471.987,2017-11-11T03:10:57Z
2017-11-11T01:12:33Z,42.805,6.029,13.2948,4.59971,2472.024,2017-11-11T03:14:00Z
2017-11-11T01:15:36Z,42.805,6.029,13.2943,4.59981,2472.024,2017-11-11T03:17:03Z
2017-11-11T01:18:38Z,42.805,6.029,13.2947,4.59965,2472.024,2017-11-11T03:20:05Z
2017-11-11T01:21:41Z,42.805,6.029,13.2945,4.59984,2472.002,2017-11-11T03:23:08Z
2017-11-11T01:24:44Z,42.805,6.029,13.2943,4.59980,2472.01,2017-11-11T03:26:11Z
2017-11-11T01:27:47Z,42.805,6.029,13.2946,4.59971,2472.069,2017-11-11T03:29:14Z
2017-11-11T01:30:50Z,42.805,6.029,13.2949,4.59983,2472.024,2017-11-11T03:32:17Z
2017-11-11T01:33:53Z,42.805,6.029,13.2948,4.59979,2472.002,2017-11-11T03:35:20Z
2017-11-11T01:36:56Z,42.805,6.029,13.2951,4.59991,2472.032,2017-11-11T03:38:23Z
2017-11-11T01:39:59Z,42.805,6.029,13.2940,4.59980,2472.024,2017-11-11T03:41:26Z
2017-11-11T01:43:02Z,42.805,6.029,13.2946,4.59990,2472.002,2017-11-11T03:44:29Z
2017-11-11T01:46:04Z,42.805,6.029,13.2944,4.59987,2471.987,2017-11-11T03:47:31Z
2017-11-11T01:49:07Z,42.805,6.029,13.2943,4.59978,2472.024,2017-11-11T03:50:34Z
2017-11-11T01:52:10Z,42.805,6.029,13.2943,4.59984,2471.987,2017-11-11T03:53:37Z
2017-11-11T01:55:13Z,42.805,6.029,13.2946,4.59990,2472.002,2017-11-11T03:56:40Z
2017-11-11T01:58:16Z,42.805,6.029,13.2945,4.59983,2472.002,2017-11-11T03:59:43Z
2017-11-11T02:01:19Z,42.805,6.029,13.2939,4.59971,2472.024,2017-11-11T04:02:46Z
2017-11-11T02:04:22Z,42.805,6.029,13.2945,4.59976,2472.01,2017-11-11T04:05:49Z
2017-11-11T02:07:25Z,42.805,6.029,13.2947,4.59981,2472.002,2017-11-11T04:08:52Z
2017-11-11T02:10:28Z,42.805,6.029,13.2945,4.59988,2472.01,2017-11-11T04:11:55Z
2017-11-11T02:13:31Z,42.805,6.029,13.2950,4.59974,2472.002,2017-11-11T04:14:57Z
2017-11-11T02:16:33Z,42.805,6.029,13.2949,4.59983,2472.01,2017-11-11T04:18:00Z
2017-11-11T02:19:36Z,42.805,6.029,13.2944,4.59986,2472.002,2017-11-11T04:21:03Z
2017-11-11T02:22:39Z,42.805,6.029,13.2950,4.59982,2472.002,2017-11-11T04:24:06Z
2017-11-11T02:25:42Z,42.805,6.029,13.2948,4.59975,2471.987,2017-11-11T04:27:09Z
2017-11-11T02:28:45Z,42.805,6.029,13.2943,4.59981,2472.002,2017-11-11T04:30:12Z
2017-11-11T02:31:48Z,42.805,6.029,13.2945,4.59973,2472.024,2017-11-11T04:33:15Z
2017-11-11T02:34:51Z,42.805,6.029,13.2943,4.59969,2472.002,2017-11-11T04:36:18Z
2017-11-11T02:37:54Z,42.805,6.029,13.2948,4.59987,2471.979,2017-11-11T04:39:21Z
2017-11-11T02:40:57Z,42.805,6.029,13.2948,4.59979,2471.964,2017-11-11T04:42:24Z
2017-11-11T02:43:59Z,42.805,6.029,13.2943,4.59980,2471.979,2017-11-11T04:45:26Z
2017-11-11T02:47:02Z,42.805,6.029,13.2945,4.59974,2471.987,2017-11-11T04:48:29Z
2017-11-11T02:50:05Z,42.805,6.029,13.2937,4.59989,2471.964,2017-11-11T04:51:32Z
2017-11-11T02:53:08Z,42.805,6.029,13.2944,4.59990,2471.979,2017-11-11T04:54:35Z
2017-11-11T02:56:11Z,42.805,6.029,13.2948,4.59987,2471.987,2017-11-11T04:57:38Z
2017-11-11T02:59:14Z,42.805,6.029,13.2941,4.59975,2471.964,2017-11-11T05:00:41Z
2017-11-11T03:02:17Z,42.805,6.029,13.2942,4.59987,2472.024,2017-11-11T05:03:44Z
2017-11-11T03:05:20Z,42.805,6.029,13.2946,4.59984,2472.01,2017-11-11T05:06:47Z
2017-11-11T03:08:23Z,42.805,6.029,13.2950,4.59984,2471.964,2017-11-11T05:09:50Z
2017-11-11T03:11:25Z,42.805,6.029,13.2948,4.59973,2471.979,2017-11-11T05:12:52Z
2017-11-11T03:14:28Z,42.805,6.029,13.2947,4.59982,2471.987,2017-11-11T05:15:55Z
2017-11-11T03:17:31Z,42.805,6.029,13.2950,4.59976,2472.002,2017-11-11T05:18:58Z
2017-11-11T03:20:34Z,42.805,6.029,13.2943,4.59984,2471.979,2017-11-11T05:22:01Z
2017-11-11T03:23:37Z,42.805,6.029,13.2940,4.59970,2471.964,2017-11-11T05:25:04Z
2017-11-11T03:26:40Z,42.805,6.029,13.2948,4.59998,2471.979,2017-11-11T05:28:07Z
2017-11-11T03:29:43Z,42.805,6.029,13.2954,4.59984,2471.979,2017-11-11T05:31:10Z
2017-11-11T03:32:46Z,42.805,6.029,13.2949,4.59987,2471.979,2017-11-11T05:34:13Z
2017-11-11T03:35:49Z,42.805,6.029,13.2943,4.59975,2471.979,2017-11-11T05:37:16Z
2017-11-11T03:38:51Z,42.805,6.029,13.2947,4.59990,2471.957,2017-11-11T05:40:18Z
2017-11-11T03:41:54Z,42.805,6.029,13.2942,4.59987,2471.942,2017-11-11T05:43:21Z
2017-11-11T03:44:57Z,42.805,6.029,13.2946,4.59973,2471.979,2017-11-11T05:46:24Z
2017-11-11T03:48:00Z,42.805,6.029,13.2943,4.59981,2471.964,2017-11-11T05:49:27Z
2017-11-11T03:51:03Z,42.805,6.029,13.2948,4.59994,2471.979,2017-11-11T05:52:30Z
2017-11-11T03:54:06Z,42.805,6.029,13.2945,4.59982,2472.002,2017-11-11T05:55:33Z
2017-11-11T03:57:09Z,42.805,6.029,13.2946,4.59982,2471.979,2017-11-11T05:58:36Z
2017-11-11T04:00:12Z,42.805,6.029,13.2948,4.59978,2471.942,2017-11-11T06:01:39Z
2017-11-11T04:03:15Z,42.805,6.029,13.2948,4.59993,2471.979,2017-11-11T06:04:42Z
2017-11-11T04:06:18Z,42.805,6.029,13.2948,4.59993,2472.002,2017-11-11T06:07:44Z
2017-11-11T04:09:20Z,42.805,6.029,13.2946,4.59984,2471.979,2017-11-11T06:10:47Z
2017-11-11T04:12:23Z,42.805,6.029,13.2940,4.59983,2471.979,2017-11-11T06:13:50Z
2017-11-11T04:15:26Z,42.805,6.029,13.2950,4.59977,2471.979,2017-11-11T06:16:53Z
2017-11-11T04:18:29Z,42.805,6.029,13.2948,4.59978,2471.957,2017-11-11T06:19:56Z
2017-11-11T04:21:32Z,42.805,6.029,13.2940,4.59972,2471.979,2017-11-11T06:22:59Z
2017-11-11T04:24:35Z,42.805,6.029,13.2940,4.59968,2471.964,2017-11-11T06:26:02Z
2017-11-11T04:27:38Z,42.805,6.029,13.2947,4.59970,2471.919,2017-11-11T06:29:05Z
2017-11-11T04:30:41Z,42.805,6.029,13.2944,4.59972,2471.942,2017-11-11T06:32:08Z
2017-11-11T04:33:44Z,42.805,6.029,13.2944,4.59981,2471.987,2017-11-11T06:35:11Z
2017-11-11T04:36:46Z,42.805,6.029,13.2946,4.59979,2471.919,2017-11-11T06:38:13Z
2017-11-11T04:39:49Z,42.805,6.029,13.2945,4.59981,2471.957,2017-11-11T06:41:16Z
2017-11-11T04:42:52Z,42.805,6.029,13.2946,4.59973,2471.994,2017-11-11T06:44:19Z
2017-11-11T04:45:55Z,42.805,6.029,13.2950,4.59984,2471.979,2017-11-11T06:47:22Z
2017-11-11T04:48:58Z,42.805,6.029,13.2948,4.59984,2471.949,2017-11-11T06:50:25Z
2017-11-11T04:52:01Z,42.805,6.029,13.2939,4.59974,2471.964,2017-11-11T06:53:28Z
2017-11-11T04:55:04Z,42.805,6.029,13.2952,4.59998,2471.912,2017-11-11T06:56:31Z
2017-11-11T04:58:07Z,42.805,6.029,13.2942,4.59977,2471.979,2017-11-11T06:59:34Z
2017-11-11T05:01:10Z,42.805,6.029,13.2940,4.59980,2471.919,2017-11-11T07:02:37Z
2017-11-11T05:04:12Z,42.805,6.029,13.2943,4.59972,2471.942,2017-11-11T07:05:39Z
2017-11-11T05:07:15Z,42.805,6.029,13.2945,4.59981,2471.957,2017-11-11T07:08:42Z
2017-11-11T05:10:18Z,42.805,6.029,13.2948,4.59974,2471.934,2017-11-11T07:11:45Z
2017-11-11T05:13:21Z,42.805,6.029,13.2951,4.59983,2471.942,2017-11-11T07:14:48Z
2017-11-11T05:16:24Z,42.805,6.029,13.2945,4.59987,2471.934,2017-11-11T07:17:51Z
2017-11-11T05:19:27Z,42.805,6.029,13.2950,4.59983,2471.979,2017-11-11T07:20:54Z
2017-11-11T05:22:30Z,42.805,6.029,13.2957,4.59992,2471.934,2017-11-11T07:23:57Z
2017-11-11T05:25:33Z,42.805,6.029,13.2949,4.59991,2471.934,2017-11-11T07:27:00Z
2017-11-11T05:28:36Z,42.805,6.029,13.2944,4.59984,2471.919,2017-11-11T07:30:03Z
2017-11-11T05:31:38Z,42.805,6.029,13.2945,4.59972,2471.942,2017-11-11T07:33:05Z
2017-11-11T05:34:41Z,42.805,6.029,13.2948,4.59971,2471.957,2017-11-11T07:36:08Z
2017-11-11T05:37:44Z,42.805,6.029,13.2944,4.59966,2471.942,2017-11-11T07:39:11Z
2017-11-11T05:40:47Z,42.805,6.029,13.2945,4.59982,2471.942,2017-11-11T07:42:14Z
2017-11-11T05:43:50Z,42.805,6.029,13.2951,4.59995,2471.934,2017-11-11T07:45:17Z
2017-11-11T05:46:53Z,42.805,6.029,13.2945,4.59967,2471.919,2017-11-11T07:48:20Z
2017-11-11T05:49:56Z,42.805,6.029,13.2946,4.59973,2471.897,2017-11-11T07:51:23Z
2017-11-11T05:52:59Z,42.805,6.029,13.2948,4.59969,2471.934,2017-11-11T07:54:26Z
2017-11-11T05:56:02Z,42.805,6.029,13.2951,4.59975,2471.912,2017-11-11T07:57:29Z
2017-11-11T05:59:05Z,42.805,6.029,13.2943,4.59975,2471.934,2017-11-11T08:00:31Z
2017-11-11T06:02:07Z,42.805,6.029,13.2945,4.60001,2471.912,2017-11-11T08:03:34Z
2017-11-11T06:05:10Z,42.805,6.029,13.2945,4.59972,2471.897,2017-11-11T08:06:37Z
2017-11-11T06:08:13Z,42.805,6.029,13.2943,4.59967,2471.919,2017-11-11T08:09:40Z
2017-11-11T06:11:16Z,42.805,6.029,13.2944,4.59978,2471.919,2017-11-11T08:12:43Z
2017-11-11T06:14:19Z,42.805,6.029,13.2940,4.59982,2471.934,2017-11-11T08:15:46Z
2017-11-11T06:17:22Z,42.805,6.029,13.2945,4.59975,2471.934,2017-11-11T08:18:49Z
2017-11-11T06:20:25Z,42.805,6.029,13.2951,4.59975,2471.934,2017-11-11T08:21:52Z
2017-11-11T06:23:28Z,42.805,6.029,13.2946,4.59983,2471.912,2017-11-11T08:24:55Z
2017-11-11T06:26:31Z,42.805,6.029,13.2947,4.59982,2471.957,2017-11-11T08:27:57Z
2017-11-11T06:29:33Z,42.805,6.029,13.2945,4.59970,2471.919,2017-11-11T08:31:00Z
2017-11-11T06:32:36Z,42.805,6.029,13.2948,4.59970,2471.957,2017-11-11T08:34:03Z
2017-11-11T06:35:39Z,42.805,6.029,13.2943,4.59977,2471.957,2017-11-11T08:37:06Z
2017-11-11T06:38:42Z,42.805,6.029,13.2943,4.59969,2471.957,2017-11-11T08:40:09Z
2017-11-11T06:41:45Z,42.805,6.029,13.2946,4.59987,2471.942,2017-11-11T08:43:12Z
2017-11-11T06:44:48Z,42.805,6.029,13.2948,4.59973,2471.919,2017-11-11T08:46:15Z
2017-11-11T06:47:51Z,42.805,6.029,13.2950,4.59975,2471.919,2017-11-11T08:49:18Z
2017-11-11T06:50:54Z,42.805,6.029,13.2950,4.59972,2471.942,2017-11-11T08:52:21Z
2017-11-11T06:53:57Z,42.805,6.029,13.2937,4.59981,2471.979,2017-11-11T08:55:24Z
2017-11-11T06:56:59Z,42.805,6.029,13.2942,4.59972,2471.912,2017-11-11T08:58:26Z
2017-11-11T07:00:02Z,42.805,6.029,13.2944,4.59981,2471.957,2017-11-11T09:01:29Z
2017-11-11T07:03:05Z,42.805,6.029,13.2940,4.59987,2471.934,2017-11-11T09:04:32Z
2017-11-11T07:06:08Z,42.805,6.029,13.2950,4.59978,2471.919,2017-11-11T09:07:35Z
2017-11-11T07:09:11Z,42.805,6.029,13.2948,4.59995,2471.979,2017-11-11T09:10:38Z
2017-11-11T07:12:14Z,42.805,6.029,13.2947,4.59979,2471.934,2017-11-11T09:13:41Z
2017-11-11T07:15:17Z,42.805,6.029,13.2946,4.59984,2471.957,2017-11-11T09:16:44Z
2017-11-11T07:18:20Z,42.805,6.029,13.2956,4.59992,2471.919,2017-11-11T09:19:47Z
2017-11-11T07:21:23Z,42.805,6.029,13.2952,4.59990,2471.942,2017-11-11T09:22:50Z
2017-11-11T07:24:25Z,42.805,6.029,13.2966,4.59989,2471.934,2017-11-11T09:25:52Z
2017-11-11T07:27:28Z,42.805,6.029,13.2954,4.60001,2471.934,2017-11-11T09:28:55Z
2017-11-11T07:30:31Z,42.805,6.029,13.2950,4.59999,2471.934,2017-11-11T09:31:58Z
2017-11-11T07:33:34Z,42.805,6.029,13.2951,4.59992,2471.957,2017-11-11T09:35:01Z
2017-11-11T07:36:37Z,42.805,6.029,13.2945,4.59987,2471.964,2017-11-11T09:38:04Z
2017-11-11T07:39:40Z,42.805,6.029,13.2942,4.59973,2471.942,2017-11-11T09:41:07Z
2017-11-11T07:42:43Z,42.805,6.029,13.2953,4.59988,2471.957,2017-11-11T09:44:10Z
2017-11-11T07:45:46Z,42.805,6.029,13.2944,4.59995,2471.942,2017-11-11T09:47:13Z
2017-11-11T07:48:49Z,42.805,6.029,13.2950,4.59987,2471.979,2017-11-11T09:50:16Z
2017-11-11T07:51:52Z,42.805,6.029,13.2943,4.59987,2471.942,2017-11-11T09:53:18Z
2017-11-11T07:54:54Z,42.805,6.029,13.2947,4.59988,2471.942,2017-11-11T09:56:21Z
2017-11-11T07:57:57Z,42.805,6.029,13.2949,4.59988,2471.971,2017-11-11T09:59:24Z
2017-11-11T08:01:00Z,42.805,6.029,13.2951,4.59990,2471.964,2017-11-11T10:02:27Z
2017-11-11T08:04:03Z,42.805,6.029,13.2952,4.60000,2471.964,2017-11-11T10:05:30Z
2017-11-11T08:07:06Z,42.805,6.029,13.2950,4.59981,2471.934,2017-11-11T10:08:33Z
2017-11-11T08:10:09Z,42.805,6.029,13.2949,4.59987,2471.987,2017-11-11T10:11:36Z
2017-11-11T08:13:12Z,42.805,6.029,13.2952,4.59971,2471.979,2017-11-11T10:14:39Z
2017-11-11T08:16:15Z,42.805,6.029,13.2942,4.60001,2471.957,2017-11-11T10:17:42Z
2017-11-11T08:19:18Z,42.805,6.029,13.2950,4.59983,2472.002,2017-11-11T10:20:45Z
2017-11-11T08:22:20Z,42.805,6.029,13.2954,4.59993,2471.979,2017-11-11T10:23:47Z
2017-11-11T08:25:23Z,42.805,6.029,13.2952,4.59972,2471.979,2017-11-11T10:26:50Z
2017-11-11T08:28:26Z,42.805,6.029,13.2945,4.59971,2471.979,2017-11-11T10:29:53Z
2017-11-11T08:31:29Z,42.805,6.029,13.2942,4.59966,2471.979,2017-11-11T10:32:56Z
2017-11-11T08:34:32Z,42.805,6.029,13.2943,4.59958,2471.957,2017-11-11T10:35:59Z
2017-11-11T08:37:35Z,42.805,6.029,13.2939,4.59961,2471.957,2017-11-11T10:39:02Z
2017-11-11T08:40:38Z,42.805,6.029,13.2947,4.59973,2471.964,2017-11-11T10:42:05Z
2017-11-11T08:43:41Z,42.805,6.029,13.2951,4.59985,2471.957,2017-11-11T10:45:08Z
2017-11-11T08:46:44Z,42.805,6.029,13.2952,4.60012,2471.957,2017-11-11T10:48:11Z
2017-11-11T08:49:47Z,42.805,6.029,13.2937,4.59958,2471.942,2017-11-11T10:51:14Z
2017-11-11T08:52:49Z,42.805,6.029,13.2943,4.59971,2471.979,2017-11-11T10:54:16Z
2017-11-11T08:55:52Z,42.805,6.029,13.2958,4.59972,2471.942,2017-11-11T10:57:19Z
2017-11-11T08:58:55Z,42.805,6.029,13.2954,4.59987,2471.957,2017-11-11T11:00:22Z
2017-11-11T09:01:58Z,42.805,6.029,13.2940,4.59958,2471.957,2017-11-11T11:03:25Z
2017-11-11T09:05:01Z,42.805,6.029,13.2942,4.59960,2471.979,2017-11-11T11:06:28Z
2017-11-11T09:08:04Z,42.805,6.029,13.2958,4.59990,2471.957,2017-11-11T11:09:31Z
2017-11-11T09:11:07Z,42.805,6.029,13.2953,4.59973,2471.964,2017-11-11T11:12:34Z
2017-11-11T09:14:10Z,42.805,6.029,13.2940,4.59960,2471.979,2017-11-11T11:15:37Z
2017-11-11T09:17:13Z,42.805,6.029,13.2939,4.59961,2471.979,2017-11-11T11:18:40Z
2017-11-11T09:20:16Z,42.805,6.029,13.2940,4.59964,2471.987,2017-11-11T11:21:42Z
2017-11-11T09:23:18Z,42.805,6.029,13.2938,4.59959,2471.957,2017-11-11T11:24:45Z
2017-11-11T09:26:21Z,42.805,6.029,13.2950,4.59979,2471.979,2017-11-11T11:27:48Z
2017-11-11T09:29:24Z,42.805,6.029,13.2950,4.59998,2472.002,2017-11-11T11:30:51Z
2017-11-11T09:32:27Z,42.805,6.029,13.2949,4.59965,2471.964,2017-11-11T11:33:54Z
2017-11-11T09:35:30Z,42.805,6.029,13.2938,4.59959,2471.979,2017-11-11T11:36:57Z
2017-11-11T09:38:33Z,42.805,6.029,13.2941,4.59957,2471.979,2017-11-11T11:40:00Z
2017-11-11T09:41:36Z,42.805,6.029,13.2941,4.59962,2471.979,2017-11-11T11:43:03Z
2017-11-11T09:44:39Z,42.805,6.029,13.2937,4.59965,2471.979,2017-11-11T11:46:06Z
2017-11-11T09:47:42Z,42.805,6.029,13.2953,4.59975,2471.979,2017-11-11T11:49:09Z
2017-11-11T09:50:44Z,42.805,6.029,13.2936,4.59956,2471.979,2017-11-11T11:52:11Z
2017-11-11T09:53:47Z,42.805,6.029,13.2938,4.59958,2471.987,2017-11-11T11:55:14Z
2017-11-11T09:56:50Z,42.805,6.029,13.2939,4.59961,2472.01,2017-11-11T11:58:17Z
2017-11-11T09:59:53Z,42.805,6.029,13.2940,4.59967,2471.987,2017-11-11T12:01:20Z
2017-11-11T10:02:56Z,42.805,6.029,13.2935,4.59959,2472.002,2017-11-11T12:04:23Z
2017-11-11T10:05:59Z,42.805,6.029,13.2937,4.59956,2471.964,2017-11-11T12:07:26Z
2017-11-11T10:09:02Z,42.805,6.029,13.2934,4.59957,2472.002,2017-11-11T12:10:29Z
2017-11-11T10:12:05Z,42.805,6.029,13.2940,4.59959,2471.987,2017-11-11T12:13:32Z
2017-11-11T10:15:08Z,42.805,6.029,13.2937,4.59957,2471.987,2017-11-11T12:16:35Z
2017-11-11T10:18:11Z,42.805,6.029,13.2939,4.59956,2472.002,2017-11-11T12:19:38Z
2017-11-11T10:21:13Z,42.805,6.029,13.2935,4.59957,2472.024,2017-11-11T12:22:40Z
2017-11-11T10:24:16Z,42.805,6.029,13.2938,4.59956,2472.047,2017-11-11T12:25:43Z
2017-11-11T10:27:19Z,42.805,6.029,13.2935,4.59956,2472.024,2017-11-11T12:28:46Z
2017-11-11T10:30:22Z,42.805,6.029,13.2939,4.59956,2472.01,2017-11-11T12:31:49Z
2017-11-11T10:33:25Z,42.805,6.029,13.2938,4.59958,2471.987,2017-11-11T12:34:52Z
2017-11-11T10:36:28Z,42.805,6.029,13.2939,4.59956,2472.047,2017-11-11T12:37:55Z
2017-11-11T10:39:31Z,42.805,6.029,13.2939,4.59958,2472.047,2017-11-11T12:40:58Z
2017-11-11T10:42:34Z,42.805,6.029,13.2937,4.59956,2472.024,2017-11-11T12:44:01Z
2017-11-11T10:45:37Z,42.805,6.029,13.2935,4.59956,2472.024,2017-11-11T12:47:04Z
2017-11-11T10:48:40Z,42.805,6.029,13.2939,4.59956,2472.069,2017-11-11T12:50:07Z
2017-11-11T10:51:42Z,42.805,6.029,13.2935,4.59958,2472.01,2017-11-11T12:53:09Z
2017-11-11T10:54:45Z,42.805,6.029,13.2940,4.59956,2472.032,2017-11-11T12:56:12Z
2017-11-11T10:57:48Z,42.805,6.029,13.2936,4.59955,2472.024,2017-11-11T12:59:15Z
2017-11-11T11:00:51Z,42.805,6.029,13.2935,4.59956,2472.032,2017-11-11T13:02:18Z
2017-11-11T11:03:54Z,42.805,6.029,13.2936,4.59955,2472.047,2017-11-11T13:05:21Z
2017-11-11T11:06:57Z,42.805,6.029,13.2937,4.59955,2472.024,2017-11-11T13:08:24Z
2017-11-11T11:10:00Z,42.805,6.029,13.2939,4.59956,2472.032,2017-11-11T13:11:27Z
2017-11-11T11:13:03Z,42.805,6.029,13.2936,4.59957,2472.01,2017-11-11T13:14:30Z
2017-11-11T11:16:06Z,42.805,6.029,13.2939,4.59956,2472.032,2017-11-11T13:17:33Z
2017-11-11T11:19:08Z,42.805,6.029,13.2933,4.59956,2472.047,2017-11-11T13:20:35Z
2017-11-11T11:22:11Z,42.805,6.029,13.2937,4.59956,2472.069,2017-11-11T13:23:38Z
2017-11-11T11:25:14Z,42.805,6.029,13.2936,4.59956,2472.047,2017-11-11T13:26:41Z
2017-11-11T11:28:17Z,42.805,6.029,13.2940,4.59956,2472.069,2017-11-11T13:29:44Z
2017-11-11T11:31:20Z,42.805,6.029,13.2935,4.59957,2472.069,2017-11-11T13:32:47Z
2017-11-11T11:34:23Z,42.805,6.029,13.2934,4.59956,2472.047,2017-11-11T13:35:50Z
2017-11-11T11:37:26Z,42.805,6.029,13.2936,4.59957,2472.069,2017-11-11T13:38:53Z
2017-11-11T11:40:29Z,42.805,6.029,13.2939,4.59955,2472.069,2017-11-11T13:41:56Z
2017-11-11T11:43:32Z,42.805,6.029,13.2935,4.59956,2472.092,2017-11-11T13:44:59Z
2017-11-11T11:46:35Z,42.805,6.029,13.2940,4.59957,2472.047,2017-11-11T13:48:02Z
2017-11-11T11:49:37Z,42.805,6.029,13.2937,4.59958,2472.032,2017-11-11T13:51:04Z
2017-11-11T11:52:40Z,42.805,6.029,13.2936,4.59956,2472.069,2017-11-11T13:54:07Z
2017-11-11T11:55:43Z,42.805,6.029,13.2935,4.59956,2472.047,2017-11-11T13:57:10Z
2017-11-11T11:58:46Z,42.805,6.029,13.2939,4.59958,2472.092,2017-11-11T14:00:13Z
2017-11-11T12:01:49Z,42.805,6.029,13.2934,4.59955,2472.069,2017-11-11T14:03:16Z
2017-11-11T12:04:52Z,42.805,6.029,13.2939,4.59956,2472.069,2017-11-11T14:06:19Z
2017-11-11T12:07:55Z,42.805,6.029,13.2937,4.59956,2472.092,2017-11-11T14:09:22Z
2017-11-11T12:10:58Z,42.805,6.029,13.2939,4.59956,2472.092,2017-11-11T14:12:25Z
2017-11-11T12:14:01Z,42.805,6.029,13.2938,4.59956,2472.055,2017-11-11T14:15:28Z
2017-11-11T12:17:04Z,42.805,6.029,13.2937,4.59956,2472.1,2017-11-11T14:18:31Z
2017-11-11T12:20:06Z,42.805,6.029,13.2939,4.59956,2472.092,2017-11-11T14:21:33Z
2017-11-11T12:23:09Z,42.805,6.029,13.2939,4.59956,2472.092,2017-11-11T14:24:36Z
2017-11-11T12:26:12Z,42.805,6.029,13.2935,4.59956,2472.092,2017-11-11T14:27:39Z
2017-11-11T12:29:15Z,42.805,6.029,13.2939,4.59957,2472.069,2017-11-11T14:30:42Z
2017-11-11T12:32:18Z,42.805,6.029,13.2939,4.59956,2472.069,2017-11-11T14:33:45Z
2017-11-11T12:35:21Z,42.805,6.029,13.2939,4.59957,2472.092,2017-11-11T14:36:48Z
2017-11-11T12:38:24Z,42.805,6.029,13.2938,4.59956,2472.069,2017-11-11T14:39:51Z
2017-11-11T12:41:27Z,42.805,6.029,13.2937,4.59956,2472.092,2017-11-11T14:42:54Z
2017-11-11T12:44:30Z,42.805,6.029,13.2936,4.59956,2472.092,2017-11-11T14:45:57Z
2017-11-11T12:47:32Z,42.805,6.029,13.2935,4.59956,2472.092,2017-11-11T14:48:59Z
2017-11-11T12:50:35Z,42.805,6.029,13.2936,4.59956,2472.069,2017-11-11T14:52:02Z
2017-11-11T12:53:38Z,42.805,6.029,13.2937,4.59958,2472.092,2017-11-11T14:55:05Z
2017-11-11T12:56:41Z,42.805,6.029,13.2933,4.59956,2472.115,2017-11-11T14:58:08Z
2017-11-11T12:59:44Z,42.805,6.029,13.2933,4.59957,2472.115,2017-11-11T15:01:11Z
2017-11-11T13:02:47Z,42.805,6.029,13.2940,4.59957,2472.115,2017-11-11T15:04:14Z
2017-11-11T13:05:50Z,42.805,6.029,13.2934,4.59957,2472.1,2017-11-11T15:07:17Z
2017-11-11T13:08:53Z,42.805,6.029,13.2938,4.59958,2472.077,2017-11-11T15:10:20Z
2017-11-11T13:11:56Z,42.805,6.029,13.2938,4.59956,2472.115,2017-11-11T15:13:23Z
2017-11-11T13:14:59Z,42.805,6.029,13.2936,4.59956,2472.055,2017-11-11T15:16:26Z
2017-11-11T13:18:01Z,42.805,6.029,13.2932,4.59956,2472.092,2017-11-11T15:19:28Z
2017-11-11T13:21:04Z,42.805,6.029,13.2936,4.59956,2472.092,2017-11-11T15:22:31Z
2017-11-11T13:24:07Z,42.805,6.029,13.2933,4.59956,2472.115,2017-11-11T15:25:34Z
2017-11-11T13:27:10Z,42.805,6.029,13.2938,4.59957,2472.092,2017-11-11T15:28:37Z
2017-11-11T13:30:13Z,42.805,6.029,13.2935,4.59956,2472.115,2017-11-11T15:31:40Z
2017-11-11T13:33:16Z,42.805,6.029,13.2935,4.59956,2472.092,2017-11-11T15:34:43Z
2017-11-11T13:36:19Z,42.805,6.029,13.2939,4.59958,2472.115,2017-11-11T15:37:46Z
2017-11-11T13:39:22Z,42.805,6.029,13.2932,4.59956,2472.092,2017-11-11T15:40:49Z
2017-11-11T13:42:25Z,42.805,6.029,13.2939,4.59957,2472.115,2017-11-11T15:43:52Z
2017-11-11T13:45:28Z,42.805,6.029,13.2940,4.59956,2472.092,2017-11-11T15:46:55Z
2017-11-11T13:48:30Z,42.805,6.029,13.2938,4.59956,2472.092,2017-11-11T15:49:57Z
2017-11-11T13:51:33Z,42.805,6.029,13.2935,4.59956,2472.077,2017-11-11T15:53:00Z
2017-11-11T13:54:36Z,42.805,6.029,13.2935,4.59959,2472.115,2017-11-11T15:56:03Z
2017-11-11T13:57:39Z,42.805,6.029,13.2940,4.59957,2472.069,2017-11-11T15:59:06Z
2017-11-11T14:00:42Z,42.805,6.029,13.2933,4.59956,2472.077,2017-11-11T16:02:09Z
2017-11-11T14:03:45Z,42.805,6.029,13.2940,4.59956,2472.1,2017-11-11T16:05:12Z
2017-11-11T14:06:48Z,42.805,6.029,13.2935,4.59957,2472.115,2017-11-11T16:08:15Z
2017-11-11T14:09:51Z,42.805,6.029,13.2935,4.59955,2472.1,2017-11-11T16:11:18Z
2017-11-11T14:12:54Z,42.805,6.029,13.2936,4.59960,2472.092,2017-11-11T16:14:21Z
2017-11-11T14:15:57Z,42.805,6.029,13.2933,4.59957,2472.115,2017-11-11T16:17:24Z
2017-11-11T14:18:59Z,42.805,6.029,13.2935,4.59956,2472.092,2017-11-11T16:20:26Z
2017-11-11T14:22:02Z,42.805,6.029,13.2940,4.59955,2472.077,2017-11-11T16:23:29Z
2017-11-11T14:25:05Z,42.805,6.029,13.2939,4.59956,2472.077,2017-11-11T16:26:32Z
2017-11-11T14:28:08Z,42.805,6.029,13.2939,4.59957,2472.1,2017-11-11T16:29:35Z
2017-11-11T14:31:11Z,42.805,6.029,13.2937,4.59956,2472.092,2017-11-11T16:32:38Z
2017-11-11T14:34:14Z,42.805,6.029,13.2935,4.59956,2472.069,2017-11-11T16:35:41Z
2017-11-11T14:37:17Z,42.805,6.029,13.2938,4.59958,2472.077,2017-11-11T16:38:44Z
2017-11-11T14:40:20Z,42.805,6.029,13.2931,4.59956,2472.069,2017-11-11T16:41:47Z
2017-11-11T14:43:23Z,42.805,6.029,13.2937,4.59956,2472.077,2017-11-11T16:44:50Z
2017-11-11T14:46:25Z,42.805,6.029,13.2939,4.59956,2472.092,2017-11-11T16:47:52Z
2017-11-11T14:49:28Z,42.805,6.029,13.2938,4.59956,2472.115,2017-11-11T16:50:55Z
2017-11-11T14:52:31Z,42.805,6.029,13.2940,4.59956,2472.092,2017-11-11T16:53:58Z
2017-11-11T14:55:34Z,42.805,6.029,13.2936,4.59956,2472.077,2017-11-11T16:57:01Z
2017-11-11T14:58:37Z,42.805,6.029,13.2939,4.59955,2472.092,2017-11-11T17:00:04Z